Time,TemperatureF,DewpointF,PressureIn,WindDirection,WindDirectionDegrees,WindSpeedMPH,WindSpeedGustMPH,Humidity,HourlyPrecipIn,Conditions,Clouds,dailyrainin,SoftwareType,DateUTC
2013-03-02 00:00:00,58.7,47.5,30.04,WNW,292,5.6,11.0,65,0.00,,,0.00,Rainwise IP-100,2013-03-02 05:00:00,
2013-03-02 00:05:00,58.7,47.5,30.03,WNW,292,4.2,10.7,65,0.00,,,0.00,Rainwise IP-100,2013-03-02 05:05:00,
2013-03-02 00:10:00,58.6,47.5,30.02,WNW,292,12.1,12.1,65,0.00,,,0.00,Rainwise IP-100,2013-03-02 05:10:00,
2013-03-02 00:15:00,58.6,47.5,30.03,WSW,247,6.5,13.1,65,0.00,,,0.00,Rainwise IP-100,2013-03-02 05:15:00,
2013-03-02 00:20:00,58.5,47.5,30.03,WNW,292,5.4,11.7,65,0.00,,,0.00,Rainwise IP-100,2013-03-02 05:20:00,
2013-03-02 00:25:00,58.4,47.0,30.04,WNW,292,5.8,7.5,65,0.00,,,0.00,Rainwise IP-100,2013-03-02 05:25:00,
2013-03-02 00:30:00,58.3,47.0,30.03,West,270,8.2,11.9,65,0.00,,,0.00,Rainwise IP-100,2013-03-02 05:30:00,
2013-03-02 00:36:00,58.3,47.0,30.04,WSW,247,6.3,10.7,66,0.00,,,0.00,Rainwise IP-100,2013-03-02 05:36:00,
2013-03-02 00:41:00,58.2,47.0,30.04,WNW,292,5.8,13.8,66,0.00,,,0.00,Rainwise IP-100,2013-03-02 05:41:00,
2013-03-02 00:46:00,58.2,47.0,30.02,WNW,292,3.5,13.1,66,0.00,,,0.00,Rainwise IP-100,2013-03-02 05:46:00,
2013-03-02 00:51:00,58.2,47.0,30.03,WNW,292,4.7,8.6,66,0.00,,,0.00,Rainwise IP-100,2013-03-02 05:51:00,
2013-03-02 00:56:00,58.1,47.5,30.02,WNW,292,5.1,12.4,67,0.00,,,0.00,Rainwise IP-100,2013-03-02 05:56:00,
2013-03-02 01:01:00,58.0,47.5,30.03,WNW,292,7.5,8.2,67,0.00,,,0.00,Rainwise IP-100,2013-03-02 06:01:00,
2013-03-02 01:06:00,57.9,47.5,30.03,West,270,4.7,10.7,67,0.00,,,0.00,Rainwise IP-100,2013-03-02 06:06:00,
2013-03-02 01:12:00,57.9,47.5,30.04,West,270,5.4,9.1,68,0.00,,,0.00,Rainwise IP-100,2013-03-02 06:12:00,
2013-03-02 01:17:00,57.8,47.5,30.03,WNW,292,4.4,12.1,68,0.00,,,0.00,Rainwise IP-100,2013-03-02 06:17:00,
2013-03-02 01:22:00,57.8,47.5,30.02,WNW,292,7.9,12.6,68,0.00,,,0.00,Rainwise IP-100,2013-03-02 06:22:00,
2013-03-02 01:27:00,57.8,47.5,30.02,WNW,292,4.7,13.5,68,0.00,,,0.00,Rainwise IP-100,2013-03-02 06:27:00,
2013-03-02 01:32:00,57.7,47.5,30.03,NW,315,5.1,11.2,68,0.00,,,0.00,Rainwise IP-100,2013-03-02 06:32:00,
2013-03-02 01:37:00,57.6,47.5,30.02,WNW,292,12.1,12.1,68,0.00,,,0.00,Rainwise IP-100,2013-03-02 06:37:00,
2013-03-02 01:42:00,57.4,47.0,30.02,West,270,7.2,12.1,67,0.00,,,0.00,Rainwise IP-100,2013-03-02 06:42:00,
2013-03-02 01:47:00,57.3,47.0,30.02,WNW,292,7.5,13.3,67,0.00,,,0.00,Rainwise IP-100,2013-03-02 06:47:00,
2013-03-02 01:53:00,57.3,47.5,30.02,NW,315,1.6,14.9,68,0.00,,,0.00,Rainwise IP-100,2013-03-02 06:53:00,
2013-03-02 01:58:00,57.2,47.0,30.02,WNW,292,4.7,13.1,68,0.00,,,0.00,Rainwise IP-100,2013-03-02 06:58:00,
2013-03-02 02:03:00,57.2,47.0,30.02,WNW,292,6.3,9.6,68,0.00,,,0.00,Rainwise IP-100,2013-03-02 07:03:00,
2013-03-02 02:08:00,57.1,47.0,30.02,NW,315,3.3,13.5,68,0.00,,,0.00,Rainwise IP-100,2013-03-02 07:08:00,
2013-03-02 02:13:00,57.1,46.0,30.02,WNW,292,11.2,11.2,67,0.00,,,0.00,Rainwise IP-100,2013-03-02 07:13:00,
2013-03-02 02:18:00,57.0,46.0,30.02,WNW,292,8.4,15.2,67,0.00,,,0.00,Rainwise IP-100,2013-03-02 07:18:00,
2013-03-02 02:23:00,57.0,46.0,30.02,West,270,8.9,12.4,65,0.00,,,0.00,Rainwise IP-100,2013-03-02 07:23:00,
2013-03-02 02:29:00,56.9,46.0,30.03,NNW,337,5.4,9.1,65,0.00,,,0.00,Rainwise IP-100,2013-03-02 07:29:00,
2013-03-02 02:34:00,56.8,46.0,30.02,WNW,292,4.9,11.7,65,0.00,,,0.00,Rainwise IP-100,2013-03-02 07:34:00,
2013-03-02 02:39:00,56.8,45.0,30.02,NW,315,3.0,11.7,64,0.00,,,0.00,Rainwise IP-100,2013-03-02 07:39:00,
2013-03-02 02:44:00,56.8,45.0,30.02,NNW,337,4.4,11.7,64,0.00,,,0.00,Rainwise IP-100,2013-03-02 07:44:00,
2013-03-02 02:49:00,56.7,44.0,30.01,WNW,292,5.4,10.3,64,0.00,,,0.00,Rainwise IP-100,2013-03-02 07:49:00,
2013-03-02 02:51:00,56.6,44.0,30.02,WNW,292,0.0,11.4,64,0.00,,,0.00,Rainwise IP-100,2013-03-02 07:51:00,
2013-03-02 02:52:00,56.6,44.0,30.02,NNW,337,5.6,11.4,63,0.00,,,0.00,Rainwise IP-100,2013-03-02 07:52:00,
2013-03-02 02:57:00,56.5,44.0,30.02,WNW,292,5.8,12.4,63,0.00,,,0.00,Rainwise IP-100,2013-03-02 07:57:00,
2013-03-02 03:02:00,56.4,44.0,30.02,WNW,292,7.9,11.7,63,0.00,,,0.00,Rainwise IP-100,2013-03-02 08:02:00,
2013-03-02 03:07:00,56.3,44.0,30.02,WNW,292,2.6,14.7,63,0.00,,,0.00,Rainwise IP-100,2013-03-02 08:07:00,
2013-03-02 03:13:00,56.3,44.0,30.02,North,360,5.6,12.6,63,0.00,,,0.00,Rainwise IP-100,2013-03-02 08:13:00,
2013-03-02 03:18:00,56.3,44.0,30.02,WNW,292,8.6,16.6,63,0.00,,,0.00,Rainwise IP-100,2013-03-02 08:18:00,
2013-03-02 03:23:00,56.2,43.0,30.02,WNW,292,9.3,12.8,62,0.00,,,0.00,Rainwise IP-100,2013-03-02 08:23:00,
2013-03-02 03:28:00,56.1,43.0,30.02,WNW,292,5.6,10.7,62,0.00,,,0.00,Rainwise IP-100,2013-03-02 08:28:00,
2013-03-02 03:33:00,56.0,43.0,30.02,WNW,292,8.6,12.8,62,0.00,,,0.00,Rainwise IP-100,2013-03-02 08:33:00,
2013-03-02 03:38:00,55.9,43.0,30.02,NNW,337,4.9,13.1,62,0.00,,,0.00,Rainwise IP-100,2013-03-02 08:38:00,
2013-03-02 03:43:00,55.8,43.0,30.02,WNW,292,10.7,12.6,62,0.00,,,0.00,Rainwise IP-100,2013-03-02 08:43:00,
2013-03-02 03:48:00,55.8,43.0,30.03,WNW,292,6.5,13.3,62,0.00,,,0.00,Rainwise IP-100,2013-03-02 08:48:00,
2013-03-02 03:54:00,55.7,42.0,30.03,WNW,292,7.7,14.7,61,0.00,,,0.00,Rainwise IP-100,2013-03-02 08:54:00,
2013-03-02 03:59:00,55.6,42.0,30.03,NW,315,4.7,11.7,61,0.00,,,0.00,Rainwise IP-100,2013-03-02 08:59:00,
2013-03-02 04:04:00,55.6,42.0,30.03,NW,315,3.3,9.3,61,0.00,,,0.00,Rainwise IP-100,2013-03-02 09:04:00,
2013-03-02 04:09:00,55.6,42.0,30.02,NW,315,4.2,11.0,61,0.00,,,0.00,Rainwise IP-100,2013-03-02 09:09:00,
2013-03-02 04:14:00,55.5,42.0,30.03,WNW,292,8.2,14.2,61,0.00,,,0.00,Rainwise IP-100,2013-03-02 09:14:00,
2013-03-02 04:19:00,55.5,43.0,30.02,WNW,292,4.9,12.6,62,0.00,,,0.00,Rainwise IP-100,2013-03-02 09:19:00,
2013-03-02 04:24:00,55.4,42.0,30.03,West,270,7.2,12.4,62,0.00,,,0.00,Rainwise IP-100,2013-03-02 09:24:00,
2013-03-02 04:30:00,55.4,42.0,30.02,WNW,292,7.7,11.9,62,0.00,,,0.00,Rainwise IP-100,2013-03-02 09:30:00,
2013-03-02 04:35:00,55.4,42.0,30.03,West,270,7.7,12.1,62,0.00,,,0.00,Rainwise IP-100,2013-03-02 09:35:00,
2013-03-02 04:40:00,55.4,42.0,30.03,West,270,8.2,12.8,62,0.00,,,0.00,Rainwise IP-100,2013-03-02 09:40:00,
2013-03-02 04:45:00,55.3,43.0,30.02,WNW,292,9.3,11.4,63,0.00,,,0.00,Rainwise IP-100,2013-03-02 09:45:00,
2013-03-02 04:50:00,55.2,43.0,30.03,WNW,292,7.9,11.9,63,0.00,,,0.00,Rainwise IP-100,2013-03-02 09:50:00,
2013-03-02 04:55:00,55.1,43.0,30.02,WNW,292,12.4,13.5,63,0.00,,,0.00,Rainwise IP-100,2013-03-02 09:55:00,
2013-03-02 05:00:00,55.1,43.0,30.03,WNW,292,7.5,15.9,63,0.00,,,0.00,Rainwise IP-100,2013-03-02 10:00:00,
2013-03-02 05:02:00,55.1,43.0,30.02,WNW,292,7.0,11.0,64,0.00,,,0.00,Rainwise IP-100,2013-03-02 10:02:00,
2013-03-02 05:07:00,55.0,43.0,30.03,WNW,292,3.5,13.5,64,0.00,,,0.00,Rainwise IP-100,2013-03-02 10:07:00,
2013-03-02 05:12:00,55.0,43.0,30.03,WNW,292,4.7,12.6,64,0.00,,,0.00,Rainwise IP-100,2013-03-02 10:12:00,
2013-03-02 05:17:00,55.0,43.0,30.03,West,270,4.7,11.7,64,0.00,,,0.00,Rainwise IP-100,2013-03-02 10:17:00,
2013-03-02 05:22:00,54.9,43.0,30.03,WNW,292,7.7,14.5,64,0.00,,,0.00,Rainwise IP-100,2013-03-02 10:22:00,
2013-03-02 05:27:00,54.9,44.0,30.03,WNW,292,7.9,12.8,65,0.00,,,0.00,Rainwise IP-100,2013-03-02 10:27:00,
2013-03-02 05:32:00,54.9,44.0,30.03,WSW,247,6.8,10.7,65,0.00,,,0.00,Rainwise IP-100,2013-03-02 10:32:00,
2013-03-02 05:37:00,54.9,44.0,30.03,WSW,247,4.4,12.8,65,0.00,,,0.00,Rainwise IP-100,2013-03-02 10:37:00,
2013-03-02 05:42:00,54.9,43.0,30.04,NW,315,6.3,14.0,64,0.00,,,0.00,Rainwise IP-100,2013-03-02 10:42:00,
2013-03-02 05:48:00,54.9,43.0,30.05,WNW,292,3.7,12.8,64,0.00,,,0.00,Rainwise IP-100,2013-03-02 10:48:00,
2013-03-02 05:53:00,54.9,43.0,30.05,WNW,292,12.1,13.3,64,0.00,,,0.00,Rainwise IP-100,2013-03-02 10:53:00,
2013-03-02 05:58:00,54.9,43.0,30.05,WNW,292,5.1,12.1,64,0.00,,,0.00,Rainwise IP-100,2013-03-02 10:58:00,
2013-03-02 06:03:00,54.9,43.0,30.06,WNW,292,4.4,11.7,64,0.00,,,0.00,Rainwise IP-100,2013-03-02 11:03:00,
2013-03-02 06:08:00,54.9,44.0,30.05,WNW,292,5.8,11.9,65,0.00,,,0.00,Rainwise IP-100,2013-03-02 11:08:00,
2013-03-02 06:13:00,54.9,44.0,30.06,NW,315,5.4,10.5,65,0.00,,,0.00,Rainwise IP-100,2013-03-02 11:13:00,
2013-03-02 06:18:00,54.9,44.0,30.06,WNW,292,5.4,11.2,65,0.00,,,0.00,Rainwise IP-100,2013-03-02 11:18:00,
2013-03-02 06:24:00,54.9,44.0,30.06,WNW,292,5.4,11.7,65,0.00,,,0.00,Rainwise IP-100,2013-03-02 11:24:00,
2013-03-02 06:29:00,54.9,44.0,30.07,NNW,337,3.3,9.8,66,0.00,,,0.00,Rainwise IP-100,2013-03-02 11:29:00,
2013-03-02 06:34:00,54.9,44.0,30.07,WNW,292,4.0,10.5,66,0.00,,,0.00,Rainwise IP-100,2013-03-02 11:34:00,
2013-03-02 06:39:00,55.0,44.0,30.07,WNW,292,3.7,7.5,66,0.00,,,0.00,Rainwise IP-100,2013-03-02 11:39:00,
2013-03-02 06:44:00,55.1,44.0,30.07,WNW,292,6.1,7.7,67,0.00,,,0.00,Rainwise IP-100,2013-03-02 11:44:00,
2013-03-02 06:49:00,55.2,44.0,30.07,NNW,337,6.1,14.5,66,0.00,,,0.00,Rainwise IP-100,2013-03-02 11:49:00,
2013-03-02 06:54:00,55.2,44.0,30.07,WNW,292,6.8,7.2,66,0.00,,,0.00,Rainwise IP-100,2013-03-02 11:54:00,
2013-03-02 06:59:00,55.3,44.0,30.08,NNW,337,5.4,13.5,66,0.00,,,0.00,Rainwise IP-100,2013-03-02 11:59:00,
2013-03-02 07:05:00,55.3,44.0,30.08,WNW,292,5.1,16.8,65,0.00,,,0.00,Rainwise IP-100,2013-03-02 12:05:00,
2013-03-02 07:10:00,55.2,44.0,30.08,West,270,0.0,11.9,65,0.00,,,0.00,Rainwise IP-100,2013-03-02 12:10:00,
2013-03-02 07:15:00,55.2,44.0,30.08,NNW,337,8.9,12.8,65,0.00,,,0.00,Rainwise IP-100,2013-03-02 12:15:00,
2013-03-02 07:20:00,55.1,44.0,30.08,WNW,292,1.2,11.2,65,0.00,,,0.00,Rainwise IP-100,2013-03-02 12:20:00,
2013-03-02 07:25:00,55.1,44.0,30.08,WNW,292,7.7,13.3,65,0.00,,,0.00,Rainwise IP-100,2013-03-02 12:25:00,
2013-03-02 07:30:00,55.0,44.0,30.07,NNW,337,4.2,14.7,65,0.00,,,0.00,Rainwise IP-100,2013-03-02 12:30:00,
2013-03-02 07:35:00,55.0,44.0,30.08,NNW,337,8.9,13.5,65,0.00,,,0.00,Rainwise IP-100,2013-03-02 12:35:00,
2013-03-02 07:41:00,55.0,44.0,30.07,North,360,9.3,15.2,65,0.00,,,0.00,Rainwise IP-100,2013-03-02 12:41:00,
2013-03-02 07:46:00,54.8,44.0,30.08,NNW,337,7.7,13.8,65,0.00,,,0.00,Rainwise IP-100,2013-03-02 12:46:00,
2013-03-02 07:51:00,54.7,43.0,30.08,WNW,292,4.9,14.7,65,0.00,,,0.00,Rainwise IP-100,2013-03-02 12:51:00,
2013-03-02 07:56:00,54.7,43.0,30.08,NNW,337,5.8,16.8,64,0.00,,,0.00,Rainwise IP-100,2013-03-02 12:56:00,
2013-03-02 08:01:00,54.7,43.0,30.08,NNW,337,3.3,13.5,64,0.00,,,0.00,Rainwise IP-100,2013-03-02 13:01:00,
2013-03-02 08:06:00,54.7,43.0,30.08,WNW,292,5.8,13.3,64,0.00,,,0.00,Rainwise IP-100,2013-03-02 13:06:00,
2013-03-02 08:11:00,54.8,43.0,30.08,NW,315,7.5,18.0,64,0.00,,,0.00,Rainwise IP-100,2013-03-02 13:11:00,
2013-03-02 08:16:00,54.8,43.0,30.09,NNW,337,5.8,12.6,63,0.00,,,0.00,Rainwise IP-100,2013-03-02 13:16:00,
2013-03-02 08:22:00,54.8,43.0,30.09,WNW,292,8.9,14.9,64,0.00,,,0.00,Rainwise IP-100,2013-03-02 13:22:00,
2013-03-02 08:27:00,54.6,42.0,30.09,NNW,337,6.3,14.9,63,0.00,,,0.00,Rainwise IP-100,2013-03-02 13:27:00,
2013-03-02 08:32:00,54.4,42.0,30.08,NNW,337,7.0,14.9,62,0.00,,,0.00,Rainwise IP-100,2013-03-02 13:32:00,
2013-03-02 08:37:00,54.3,41.0,30.08,North,360,10.0,14.2,61,0.00,,,0.00,Rainwise IP-100,2013-03-02 13:37:00,
2013-03-02 08:42:00,54.2,40.0,30.08,NW,315,5.6,12.4,60,0.00,,,0.00,Rainwise IP-100,2013-03-02 13:42:00,
2013-03-02 08:47:00,54.2,40.0,30.08,NW,315,6.3,11.9,60,0.00,,,0.00,Rainwise IP-100,2013-03-02 13:47:00,
2013-03-02 08:52:00,54.2,40.0,30.09,NW,315,7.9,14.0,60,0.00,,,0.00,Rainwise IP-100,2013-03-02 13:52:00,
2013-03-02 08:58:00,54.3,41.0,30.09,WNW,292,4.2,9.3,60,0.00,,,0.00,Rainwise IP-100,2013-03-02 13:58:00,
2013-03-02 09:03:00,54.5,41.0,30.09,WNW,292,5.8,9.1,60,0.00,,,0.00,Rainwise IP-100,2013-03-02 14:03:00,
2013-03-02 09:08:00,54.5,41.0,30.09,NNE,22,4.2,10.3,60,0.00,,,0.00,Rainwise IP-100,2013-03-02 14:08:00,
2013-03-02 09:13:00,54.6,40.0,30.09,NNW,337,4.7,9.8,59,0.00,,,0.00,Rainwise IP-100,2013-03-02 14:13:00,
2013-03-02 09:18:00,54.8,41.0,30.09,NNW,337,4.4,9.1,59,0.00,,,0.00,Rainwise IP-100,2013-03-02 14:18:00,
2013-03-02 09:23:00,54.8,41.0,30.09,WNW,292,4.0,8.4,58,0.00,,,0.00,Rainwise IP-100,2013-03-02 14:23:00,
2013-03-02 09:28:00,54.9,41.0,30.10,WNW,292,3.0,10.3,59,0.00,,,0.00,Rainwise IP-100,2013-03-02 14:28:00,
2013-03-02 09:33:00,55.1,41.0,30.09,NNW,337,6.8,12.1,59,0.00,,,0.00,Rainwise IP-100,2013-03-02 14:33:00,
2013-03-02 09:39:00,55.2,41.0,30.08,WNW,292,4.4,10.7,58,0.00,,,0.00,Rainwise IP-100,2013-03-02 14:39:00,
2013-03-02 09:44:00,55.3,39.0,30.10,NNW,337,4.0,9.8,55,0.00,,,0.00,Rainwise IP-100,2013-03-02 14:44:00,
2013-03-02 09:49:00,55.4,37.0,30.09,NNW,337,9.3,9.8,51,0.00,,,0.00,Rainwise IP-100,2013-03-02 14:49:00,
2013-03-02 09:54:00,55.6,36.0,30.09,NNW,337,3.7,11.0,47,0.00,,,0.00,Rainwise IP-100,2013-03-02 14:54:00,
2013-03-02 09:59:00,56.2,36.0,30.08,NNW,337,2.1,8.4,46,0.00,,,0.00,Rainwise IP-100,2013-03-02 14:59:00,
2013-03-02 10:04:00,56.7,36.0,30.08,WNW,292,2.6,5.6,46,0.00,,,0.00,Rainwise IP-100,2013-03-02 15:04:00,
2013-03-02 10:09:00,57.0,36.0,30.08,NNW,337,4.4,7.9,44,0.00,,,0.00,Rainwise IP-100,2013-03-02 15:09:00,
2013-03-02 10:15:00,57.3,36.0,30.08,NNW,337,5.1,7.0,43,0.00,,,0.00,Rainwise IP-100,2013-03-02 15:15:00,
2013-03-02 10:20:00,57.6,35.0,30.08,WNW,292,8.9,9.1,42,0.00,,,0.00,Rainwise IP-100,2013-03-02 15:20:00,
2013-03-02 10:25:00,57.3,35.0,30.08,NNW,337,7.2,9.6,42,0.00,,,0.00,Rainwise IP-100,2013-03-02 15:25:00,
2013-03-02 10:30:00,56.9,35.0,30.09,NNW,337,3.0,8.6,43,0.00,,,0.00,Rainwise IP-100,2013-03-02 15:30:00,
2013-03-02 10:35:00,57.1,36.0,30.09,NNW,337,3.5,9.6,44,0.00,,,0.00,Rainwise IP-100,2013-03-02 15:35:00,
2013-03-02 10:40:00,57.3,36.0,30.08,NW,315,4.4,6.8,44,0.00,,,0.00,Rainwise IP-100,2013-03-02 15:40:00,
2013-03-02 10:45:00,57.3,37.0,30.07,WNW,292,8.2,8.2,45,0.00,,,0.00,Rainwise IP-100,2013-03-02 15:45:00,
2013-03-02 10:50:00,57.0,37.0,30.07,NNW,337,2.6,9.1,46,0.00,,,0.00,Rainwise IP-100,2013-03-02 15:50:00,
2013-03-02 10:56:00,57.1,37.0,30.08,NNW,337,8.6,8.6,46,0.00,,,0.00,Rainwise IP-100,2013-03-02 15:56:00,
2013-03-02 11:01:00,57.6,37.0,30.08,NW,315,4.4,8.2,46,0.00,,,0.00,Rainwise IP-100,2013-03-02 16:01:00,
2013-03-02 11:06:00,57.6,37.0,30.08,North,360,3.7,5.8,46,0.00,,,0.00,Rainwise IP-100,2013-03-02 16:06:00,
2013-03-02 11:11:00,58.0,37.0,30.08,NW,315,2.8,8.9,45,0.00,,,0.00,Rainwise IP-100,2013-03-02 16:11:00,
2013-03-02 11:16:00,58.6,37.0,30.07,North,360,4.7,8.4,44,0.00,,,0.00,Rainwise IP-100,2013-03-02 16:16:00,
2013-03-02 11:21:00,59.2,37.0,30.08,NW,315,4.7,10.5,44,0.00,,,0.00,Rainwise IP-100,2013-03-02 16:21:00,
2013-03-02 11:26:00,59.3,37.0,30.07,WNW,292,3.0,13.8,43,0.00,,,0.00,Rainwise IP-100,2013-03-02 16:26:00,
2013-03-02 11:32:00,59.0,36.0,30.07,NNW,337,7.2,10.5,42,0.00,,,0.00,Rainwise IP-100,2013-03-02 16:32:00,
2013-03-02 11:37:00,59.1,37.0,30.06,NNW,337,3.7,9.3,43,0.00,,,0.00,Rainwise IP-100,2013-03-02 16:37:00,
2013-03-02 11:42:00,59.3,37.0,30.07,NNE,22,6.8,9.8,43,0.00,,,0.00,Rainwise IP-100,2013-03-02 16:42:00,
2013-03-02 11:47:00,59.4,36.0,30.06,NNW,337,7.9,9.8,42,0.00,,,0.00,Rainwise IP-100,2013-03-02 16:47:00,
2013-03-02 11:52:00,59.4,36.0,30.06,WNW,292,6.3,13.3,42,0.00,,,0.00,Rainwise IP-100,2013-03-02 16:52:00,
2013-03-02 11:57:00,59.5,37.0,30.06,NNW,337,5.1,11.7,43,0.00,,,0.00,Rainwise IP-100,2013-03-02 16:57:00,
2013-03-02 12:02:00,60.2,37.0,30.06,WNW,292,2.3,9.1,43,0.00,,,0.00,Rainwise IP-100,2013-03-02 17:02:00,
2013-03-02 12:07:00,60.8,38.0,30.06,NNW,337,4.2,14.0,43,0.00,,,0.00,Rainwise IP-100,2013-03-02 17:07:00,
2013-03-02 12:13:00,61.0,38.0,30.05,WNW,292,8.2,15.9,42,0.00,,,0.00,Rainwise IP-100,2013-03-02 17:13:00,
2013-03-02 12:18:00,61.2,38.0,30.05,WNW,292,4.7,14.9,42,0.00,,,0.00,Rainwise IP-100,2013-03-02 17:18:00,
2013-03-02 12:23:00,61.0,38.0,30.05,NW,315,5.1,14.2,42,0.00,,,0.00,Rainwise IP-100,2013-03-02 17:23:00,
2013-03-02 12:28:00,61.0,38.0,30.05,NNW,337,7.7,13.3,42,0.00,,,0.00,Rainwise IP-100,2013-03-02 17:28:00,
2013-03-02 12:33:00,61.1,38.0,30.05,WNW,292,5.1,15.4,42,0.00,,,0.00,Rainwise IP-100,2013-03-02 17:33:00,
2013-03-02 12:38:00,61.4,38.0,30.05,SSW,202,3.5,12.4,42,0.00,,,0.00,Rainwise IP-100,2013-03-02 17:38:00,
2013-03-02 12:43:00,61.9,39.0,30.05,NNW,337,11.9,14.9,42,0.00,,,0.00,Rainwise IP-100,2013-03-02 17:43:00,
2013-03-02 12:49:00,62.4,39.0,30.05,WSW,247,6.5,14.0,42,0.00,,,0.00,Rainwise IP-100,2013-03-02 17:49:00,
2013-03-02 12:54:00,62.7,39.0,30.04,NNW,337,7.0,15.9,42,0.00,,,0.00,Rainwise IP-100,2013-03-02 17:54:00,
2013-03-02 12:59:00,62.8,39.0,30.03,WNW,292,9.8,16.6,42,0.00,,,0.00,Rainwise IP-100,2013-03-02 17:59:00,
2013-03-02 13:04:00,62.8,39.0,30.02,NNW,337,9.1,18.7,42,0.00,,,0.00,Rainwise IP-100,2013-03-02 18:04:00,
2013-03-02 13:09:00,62.6,40.0,30.03,NW,315,11.7,17.7,43,0.00,,,0.00,Rainwise IP-100,2013-03-02 18:09:00,
2013-03-02 13:14:00,62.5,40.0,30.04,NW,315,10.0,19.8,44,0.00,,,0.00,Rainwise IP-100,2013-03-02 18:14:00,
2013-03-02 13:19:00,62.5,40.0,30.04,West,270,10.7,18.7,44,0.00,,,0.00,Rainwise IP-100,2013-03-02 18:19:00,
2013-03-02 13:24:00,62.9,41.0,30.04,NW,315,5.8,12.8,45,0.00,,,0.00,Rainwise IP-100,2013-03-02 18:24:00,
2013-03-02 13:29:00,63.2,41.0,30.03,WNW,292,13.8,22.4,45,0.00,,,0.00,Rainwise IP-100,2013-03-02 18:29:00,
2013-03-02 13:34:00,63.4,41.0,30.02,NW,315,9.1,15.9,44,0.00,,,0.00,Rainwise IP-100,2013-03-02 18:34:00,
2013-03-02 13:40:00,64.0,41.0,30.02,WNW,292,6.5,15.9,44,0.00,,,0.00,Rainwise IP-100,2013-03-02 18:40:00,
2013-03-02 13:45:00,64.5,42.0,30.02,WNW,292,9.8,17.7,44,0.00,,,0.00,Rainwise IP-100,2013-03-02 18:45:00,
2013-03-02 13:50:00,64.4,42.0,30.02,WNW,292,10.3,24.2,44,0.00,,,0.00,Rainwise IP-100,2013-03-02 18:50:00,
2013-03-02 13:55:00,63.9,42.0,30.01,NW,315,12.8,17.0,45,0.00,,,0.00,Rainwise IP-100,2013-03-02 18:55:00,
2013-03-02 14:00:00,64.1,42.0,30.02,NNW,337,8.9,16.6,45,0.00,,,0.00,Rainwise IP-100,2013-03-02 19:00:00,
2013-03-02 14:05:00,64.2,42.0,30.02,WSW,247,11.0,18.4,45,0.00,,,0.00,Rainwise IP-100,2013-03-02 19:05:00,
2013-03-02 14:10:00,64.3,42.0,30.01,WNW,292,11.7,18.7,45,0.00,,,0.00,Rainwise IP-100,2013-03-02 19:10:00,
2013-03-02 14:16:00,64.5,42.0,30.01,WNW,292,8.2,21.5,45,0.00,,,0.00,Rainwise IP-100,2013-03-02 19:16:00,
2013-03-02 14:21:00,64.9,43.0,30.01,NNW,337,3.0,16.8,45,0.00,,,0.00,Rainwise IP-100,2013-03-02 19:21:00,
2013-03-02 14:26:00,65.2,43.0,30.01,WSW,247,6.1,19.1,45,0.00,,,0.00,Rainwise IP-100,2013-03-02 19:26:00,
2013-03-02 14:31:00,65.2,43.0,30.01,West,270,11.4,21.2,45,0.00,,,0.00,Rainwise IP-100,2013-03-02 19:31:00,
2013-03-02 14:36:00,64.9,42.0,30.00,WNW,292,17.5,26.1,44,0.00,,,0.00,Rainwise IP-100,2013-03-02 19:36:00,
2013-03-02 14:41:00,64.6,42.0,30.02,NW,315,5.8,21.9,44,0.00,,,0.00,Rainwise IP-100,2013-03-02 19:41:00,
2013-03-02 14:46:00,64.2,42.0,30.02,NNW,337,6.8,22.2,45,0.00,,,0.00,Rainwise IP-100,2013-03-02 19:46:00,
2013-03-02 14:51:00,63.9,42.0,30.00,WNW,292,21.7,23.3,45,0.00,,,0.00,Rainwise IP-100,2013-03-02 19:51:00,
2013-03-02 14:56:00,63.8,42.0,30.01,WNW,292,10.3,22.2,45,0.00,,,0.00,Rainwise IP-100,2013-03-02 19:56:00,
2013-03-02 15:02:00,63.7,42.0,30.00,NNW,337,14.7,16.6,45,0.00,,,0.00,Rainwise IP-100,2013-03-02 20:02:00,
2013-03-02 15:07:00,63.9,41.0,30.01,WNW,292,8.6,23.6,44,0.00,,,0.00,Rainwise IP-100,2013-03-02 20:07:00,
2013-03-02 15:12:00,63.9,41.0,30.01,WNW,292,11.2,22.6,44,0.00,,,0.00,Rainwise IP-100,2013-03-02 20:12:00,
2013-03-02 15:17:00,63.9,41.0,30.01,NW,315,11.9,22.9,44,0.00,,,0.00,Rainwise IP-100,2013-03-02 20:17:00,
2013-03-02 15:22:00,64.1,41.0,30.01,WNW,292,17.7,20.8,44,0.00,,,0.00,Rainwise IP-100,2013-03-02 20:22:00,
2013-03-02 15:27:00,63.7,40.0,30.01,NW,315,7.7,20.8,43,0.00,,,0.00,Rainwise IP-100,2013-03-02 20:27:00,
2013-03-02 15:32:00,63.5,41.0,30.01,WNW,292,8.2,22.9,44,0.00,,,0.00,Rainwise IP-100,2013-03-02 20:32:00,
2013-03-02 15:37:00,63.6,40.0,30.00,WNW,292,15.4,18.4,43,0.00,,,0.00,Rainwise IP-100,2013-03-02 20:37:00,
2013-03-02 15:43:00,63.8,41.0,30.01,NW,315,15.4,21.7,43,0.00,,,0.00,Rainwise IP-100,2013-03-02 20:43:00,
2013-03-02 15:48:00,63.6,40.0,30.01,WNW,292,17.7,26.8,43,0.00,,,0.00,Rainwise IP-100,2013-03-02 20:48:00,
2013-03-02 15:53:00,63.3,40.0,30.01,WNW,292,11.9,22.9,43,0.00,,,0.00,Rainwise IP-100,2013-03-02 20:53:00,
2013-03-02 15:58:00,63.3,41.0,30.00,NNW,337,9.1,18.2,44,0.00,,,0.00,Rainwise IP-100,2013-03-02 20:58:00,
2013-03-02 16:03:00,63.3,41.0,30.01,WSW,247,6.3,21.5,44,0.00,,,0.00,Rainwise IP-100,2013-03-02 21:03:00,
2013-03-02 16:08:00,63.1,41.0,30.01,SW,225,4.2,17.3,44,0.00,,,0.00,Rainwise IP-100,2013-03-02 21:08:00,
2013-03-02 16:13:00,62.8,41.0,30.01,WNW,292,5.6,19.1,44,0.00,,,0.00,Rainwise IP-100,2013-03-02 21:13:00,
2013-03-02 16:18:00,62.4,40.0,30.01,WSW,247,7.5,20.8,44,0.00,,,0.00,Rainwise IP-100,2013-03-02 21:18:00,
2013-03-02 16:23:00,62.0,40.0,30.02,WNW,292,12.1,19.1,44,0.00,,,0.00,Rainwise IP-100,2013-03-02 21:23:00,
2013-03-02 16:29:00,61.8,40.0,30.02,WNW,292,16.1,16.1,44,0.00,,,0.00,Rainwise IP-100,2013-03-02 21:29:00,
2013-03-02 16:34:00,62.0,40.0,30.02,West,270,18.7,22.9,44,0.00,,,0.00,Rainwise IP-100,2013-03-02 21:34:00,
2013-03-02 16:39:00,62.1,40.0,30.02,WNW,292,15.4,18.7,44,0.00,,,0.00,Rainwise IP-100,2013-03-02 21:39:00,
2013-03-02 16:44:00,61.9,40.0,30.02,WNW,292,7.5,18.7,45,0.00,,,0.00,Rainwise IP-100,2013-03-02 21:44:00,
2013-03-02 16:49:00,61.6,40.0,30.02,WNW,292,10.3,17.3,45,0.00,,,0.00,Rainwise IP-100,2013-03-02 21:49:00,
2013-03-02 16:54:00,61.5,40.0,30.02,WNW,292,8.6,15.2,45,0.00,,,0.00,Rainwise IP-100,2013-03-02 21:54:00,
2013-03-02 16:59:00,61.3,40.0,30.02,WSW,247,4.2,18.0,45,0.00,,,0.00,Rainwise IP-100,2013-03-02 21:59:00,
2013-03-02 17:05:00,61.2,40.0,30.02,NNW,337,7.9,16.3,46,0.00,,,0.00,Rainwise IP-100,2013-03-02 22:05:00,
2013-03-02 17:10:00,61.0,40.0,30.03,NW,315,6.1,15.6,46,0.00,,,0.00,Rainwise IP-100,2013-03-02 22:10:00,
2013-03-02 17:15:00,60.9,40.0,30.02,WSW,247,7.2,18.4,46,0.00,,,0.00,Rainwise IP-100,2013-03-02 22:15:00,
2013-03-02 17:20:00,60.9,40.0,30.02,WNW,292,10.7,15.9,46,0.00,,,0.00,Rainwise IP-100,2013-03-02 22:20:00,
2013-03-02 17:25:00,60.7,39.0,30.03,West,270,14.2,16.8,46,0.00,,,0.00,Rainwise IP-100,2013-03-02 22:25:00,
2013-03-02 17:30:00,60.5,40.0,30.03,West,270,9.8,15.9,47,0.00,,,0.00,Rainwise IP-100,2013-03-02 22:30:00,
2013-03-02 17:35:00,60.4,40.0,30.03,WSW,247,7.2,19.1,47,0.00,,,0.00,Rainwise IP-100,2013-03-02 22:35:00,
2013-03-02 17:40:00,60.3,40.0,30.03,WNW,292,5.4,11.7,48,0.00,,,0.00,Rainwise IP-100,2013-03-02 22:40:00,
2013-03-02 17:46:00,60.2,40.0,30.04,WNW,292,12.8,16.8,48,0.00,,,0.00,Rainwise IP-100,2013-03-02 22:46:00,
2013-03-02 17:51:00,60.1,40.0,30.04,WNW,292,4.7,17.0,49,0.00,,,0.00,Rainwise IP-100,2013-03-02 22:51:00,
2013-03-02 17:56:00,60.0,40.0,30.05,NNW,337,4.7,15.9,49,0.00,,,0.00,Rainwise IP-100,2013-03-02 22:56:00,
2013-03-02 18:01:00,59.9,40.0,30.04,WNW,292,9.6,10.5,49,0.00,,,0.00,Rainwise IP-100,2013-03-02 23:01:00,
2013-03-02 18:06:00,59.8,40.0,30.04,NW,315,2.8,15.2,49,0.00,,,0.00,Rainwise IP-100,2013-03-02 23:06:00,
2013-03-02 18:11:00,59.6,41.0,30.05,WNW,292,4.2,11.4,50,0.00,,,0.00,Rainwise IP-100,2013-03-02 23:11:00,
2013-03-02 18:16:00,59.5,41.0,30.04,WNW,292,4.4,12.1,50,0.00,,,0.00,Rainwise IP-100,2013-03-02 23:16:00,
2013-03-02 18:22:00,59.4,41.0,30.04,WNW,292,1.6,8.9,50,0.00,,,0.00,Rainwise IP-100,2013-03-02 23:22:00,
2013-03-02 18:27:00,59.3,41.0,30.05,NNW,337,5.6,8.4,51,0.00,,,0.00,Rainwise IP-100,2013-03-02 23:27:00,
2013-03-02 18:32:00,59.1,41.0,30.05,WNW,292,3.7,10.7,51,0.00,,,0.00,Rainwise IP-100,2013-03-02 23:32:00,
2013-03-02 18:37:00,59.0,41.0,30.05,WNW,292,3.0,7.9,52,0.00,,,0.00,Rainwise IP-100,2013-03-02 23:37:00,
2013-03-02 18:42:00,59.0,41.0,30.06,WNW,292,4.0,9.1,52,0.00,,,0.00,Rainwise IP-100,2013-03-02 23:42:00,
2013-03-02 18:47:00,59.0,42.0,30.06,WNW,292,4.2,8.9,53,0.00,,,0.00,Rainwise IP-100,2013-03-02 23:47:00,
2013-03-02 18:52:00,58.9,42.0,30.06,WNW,292,5.6,7.9,53,0.00,,,0.00,Rainwise IP-100,2013-03-02 23:52:00,
2013-03-02 18:57:00,58.8,42.0,30.06,NNW,337,8.4,12.6,53,0.00,,,0.00,Rainwise IP-100,2013-03-02 23:57:00,
2013-03-02 19:03:00,58.7,42.0,30.07,NNW,337,4.2,8.4,54,0.00,,,0.00,Rainwise IP-100,2013-03-03 00:03:00,
2013-03-02 19:08:00,58.5,42.0,30.07,WNW,292,3.7,8.4,54,0.00,,,0.00,Rainwise IP-100,2013-03-03 00:08:00,
2013-03-02 19:13:00,58.2,42.0,30.07,WNW,292,3.7,9.3,55,0.00,,,0.00,Rainwise IP-100,2013-03-03 00:13:00,
2013-03-02 19:18:00,58.0,41.0,30.07,NW,315,2.8,12.1,54,0.00,,,0.00,Rainwise IP-100,2013-03-03 00:18:00,
2013-03-02 19:23:00,57.8,41.0,30.07,NNW,337,3.7,9.3,53,0.00,,,0.00,Rainwise IP-100,2013-03-03 00:23:00,
2013-03-02 19:28:00,57.6,40.0,30.07,WNW,292,3.7,12.4,53,0.00,,,0.00,Rainwise IP-100,2013-03-03 00:28:00,
2013-03-02 19:33:00,57.4,40.0,30.08,WNW,292,5.4,12.8,53,0.00,,,0.00,Rainwise IP-100,2013-03-03 00:33:00,
2013-03-02 19:38:00,57.2,40.0,30.08,WNW,292,3.0,11.9,53,0.00,,,0.00,Rainwise IP-100,2013-03-03 00:38:00,
2013-03-02 19:44:00,57.1,40.0,30.08,WNW,292,7.2,9.1,53,0.00,,,0.00,Rainwise IP-100,2013-03-03 00:44:00,
2013-03-02 19:49:00,57.0,40.0,30.08,West,270,3.5,13.1,53,0.00,,,0.00,Rainwise IP-100,2013-03-03 00:49:00,
2013-03-02 19:54:00,56.9,40.0,30.08,WNW,292,5.1,11.4,54,0.00,,,0.00,Rainwise IP-100,2013-03-03 00:54:00,
2013-03-02 19:59:00,56.9,40.0,30.09,NW,315,1.4,12.4,54,0.00,,,0.00,Rainwise IP-100,2013-03-03 00:59:00,
2013-03-02 20:04:00,56.8,40.0,30.09,WNW,292,3.5,10.7,54,0.00,,,0.00,Rainwise IP-100,2013-03-03 01:04:00,
2013-03-02 20:09:00,56.7,40.0,30.09,WNW,292,3.7,7.9,55,0.00,,,0.00,Rainwise IP-100,2013-03-03 01:09:00,
2013-03-02 20:14:00,56.5,41.0,30.09,WNW,292,5.4,8.9,56,0.00,,,0.00,Rainwise IP-100,2013-03-03 01:14:00,
2013-03-02 20:19:00,56.4,41.0,30.09,NW,315,1.4,8.2,56,0.00,,,0.00,Rainwise IP-100,2013-03-03 01:19:00,
2013-03-02 20:25:00,56.4,41.0,30.09,WNW,292,3.3,6.8,56,0.00,,,0.00,Rainwise IP-100,2013-03-03 01:25:00,
2013-03-02 20:30:00,56.3,41.0,30.10,WNW,292,4.0,7.0,56,0.00,,,0.00,Rainwise IP-100,2013-03-03 01:30:00,
2013-03-02 20:35:00,56.3,41.0,30.09,NNW,337,0.0,5.6,57,0.00,,,0.00,Rainwise IP-100,2013-03-03 01:35:00,
2013-03-02 20:40:00,56.2,41.0,30.09,WNW,292,4.0,4.2,57,0.00,,,0.00,Rainwise IP-100,2013-03-03 01:40:00,
2013-03-02 20:45:00,56.1,41.0,30.09,West,270,3.0,7.0,57,0.00,,,0.00,Rainwise IP-100,2013-03-03 01:45:00,
2013-03-02 20:50:00,56.1,41.0,30.09,WNW,292,1.2,3.7,57,0.00,,,0.00,Rainwise IP-100,2013-03-03 01:50:00,
2013-03-02 20:55:00,55.9,41.0,30.09,WNW,292,3.3,3.3,58,0.00,,,0.00,Rainwise IP-100,2013-03-03 01:55:00,
2013-03-02 21:01:00,55.8,42.0,30.09,NW,315,4.7,5.4,59,0.00,,,0.00,Rainwise IP-100,2013-03-03 02:01:00,
2013-03-02 21:06:00,55.7,41.0,30.10,WNW,292,0.0,4.2,58,0.00,,,0.00,Rainwise IP-100,2013-03-03 02:06:00,
2013-03-02 21:11:00,55.7,42.0,30.10,WNW,292,3.7,3.7,59,0.00,,,0.00,Rainwise IP-100,2013-03-03 02:11:00,
2013-03-02 21:16:00,55.6,42.0,30.09,WNW,292,3.3,4.2,59,0.00,,,0.00,Rainwise IP-100,2013-03-03 02:16:00,
2013-03-02 21:21:00,55.5,42.0,30.10,WNW,292,2.3,3.7,59,0.00,,,0.00,Rainwise IP-100,2013-03-03 02:21:00,
2013-03-02 21:26:00,55.5,42.0,30.09,WNW,292,1.9,3.0,60,0.00,,,0.00,Rainwise IP-100,2013-03-03 02:26:00,
2013-03-02 21:31:00,55.4,41.0,30.09,WNW,292,1.4,2.6,60,0.00,,,0.00,Rainwise IP-100,2013-03-03 02:31:00,
2013-03-02 21:36:00,55.3,42.0,30.09,WNW,292,2.3,2.3,61,0.00,,,0.00,Rainwise IP-100,2013-03-03 02:36:00,
2013-03-02 21:42:00,55.2,42.0,30.10,WNW,292,0.0,3.0,61,0.00,,,0.00,Rainwise IP-100,2013-03-03 02:42:00,
2013-03-02 21:47:00,55.2,42.0,30.10,WNW,292,0.0,3.0,61,0.00,,,0.00,Rainwise IP-100,2013-03-03 02:47:00,
2013-03-02 21:52:00,55.3,42.0,30.10,WNW,292,2.6,2.6,61,0.00,,,0.00,Rainwise IP-100,2013-03-03 02:52:00,
2013-03-02 21:57:00,55.3,42.0,30.10,WNW,292,1.6,4.2,61,0.00,,,0.00,Rainwise IP-100,2013-03-03 02:57:00,
2013-03-02 22:02:00,55.4,42.0,30.10,WSW,247,1.6,4.7,61,0.00,,,0.00,Rainwise IP-100,2013-03-03 03:02:00,
2013-03-02 22:07:00,55.3,42.0,30.10,WNW,292,0.0,4.2,61,0.00,,,0.00,Rainwise IP-100,2013-03-03 03:07:00,
2013-03-02 22:12:00,55.3,42.0,30.10,West,270,2.8,4.0,61,0.00,,,0.00,Rainwise IP-100,2013-03-03 03:12:00,
2013-03-02 22:17:00,55.3,42.0,30.10,WNW,292,2.6,4.0,61,0.00,,,0.00,Rainwise IP-100,2013-03-03 03:17:00,
2013-03-02 22:23:00,55.2,42.0,30.10,West,270,2.1,3.3,62,0.00,,,0.00,Rainwise IP-100,2013-03-03 03:23:00,
2013-03-02 22:28:00,55.1,42.0,30.09,WNW,292,2.1,4.2,62,0.00,,,0.00,Rainwise IP-100,2013-03-03 03:28:00,
2013-03-02 22:33:00,55.0,42.0,30.09,WNW,292,0.0,3.3,62,0.00,,,0.00,Rainwise IP-100,2013-03-03 03:33:00,
2013-03-02 22:38:00,54.7,42.0,30.09,WNW,292,1.2,2.3,62,0.00,,,0.00,Rainwise IP-100,2013-03-03 03:38:00,
2013-03-02 22:43:00,54.5,42.0,30.09,WNW,292,2.6,2.8,63,0.00,,,0.00,Rainwise IP-100,2013-03-03 03:43:00,
2013-03-02 22:48:00,54.5,43.0,30.09,WNW,292,0.0,4.2,64,0.00,,,0.00,Rainwise IP-100,2013-03-03 03:48:00,
2013-03-02 22:53:00,54.4,43.0,30.10,WNW,292,1.6,3.7,64,0.00,,,0.00,Rainwise IP-100,2013-03-03 03:53:00,
2013-03-02 22:58:00,54.3,43.0,30.09,WNW,292,1.6,3.0,64,0.00,,,0.00,Rainwise IP-100,2013-03-03 03:58:00,
2013-03-02 23:04:00,54.1,42.0,30.09,WSW,247,1.2,2.8,64,0.00,,,0.00,Rainwise IP-100,2013-03-03 04:04:00,
2013-03-02 23:09:00,53.9,42.0,30.09,WSW,247,2.8,3.0,65,0.00,,,0.00,Rainwise IP-100,2013-03-03 04:09:00,
2013-03-02 23:14:00,53.8,42.0,30.08,West,270,1.2,3.0,65,0.00,,,0.00,Rainwise IP-100,2013-03-03 04:14:00,
2013-03-02 23:19:00,53.8,42.0,30.08,WNW,292,0.0,2.6,65,0.00,,,0.00,Rainwise IP-100,2013-03-03 04:19:00,
2013-03-02 23:24:00,53.8,43.0,30.08,WNW,292,2.1,3.0,66,0.00,,,0.00,Rainwise IP-100,2013-03-03 04:24:00,
2013-03-02 23:29:00,53.7,42.0,30.08,West,270,4.0,4.0,66,0.00,,,0.00,Rainwise IP-100,2013-03-03 04:29:00,
2013-03-02 23:34:00,53.7,42.0,30.07,WNW,292,1.6,4.7,66,0.00,,,0.00,Rainwise IP-100,2013-03-03 04:34:00,
2013-03-02 23:40:00,53.7,42.0,30.08,WNW,292,1.9,4.7,65,0.00,,,0.00,Rainwise IP-100,2013-03-03 04:40:00,
2013-03-02 23:45:00,53.6,42.0,30.07,NNW,337,2.3,4.9,65,0.00,,,0.00,Rainwise IP-100,2013-03-03 04:45:00,
2013-03-02 23:50:00,53.6,42.0,30.07,WNW,292,3.0,6.3,65,0.00,,,0.00,Rainwise IP-100,2013-03-03 04:50:00,
2013-03-02 23:55:00,53.6,42.0,30.08,WSW,247,2.6,7.5,65,0.00,,,0.00,Rainwise IP-100,2013-03-03 04:55:00,